Time,TemperatureF,DewpointF,PressureIn,WindDirection,WindDirectionDegrees,WindSpeedMPH,WindSpeedGustMPH,Humidity,HourlyPrecipIn,Conditions,Clouds,dailyrainin,SoftwareType,DateUTC
2013-02-01 00:06:00,36.5,23.0,30.04,NW,318,3.0,7.0,58,0.00,,,0.00,weatherlink.com 1.10,2013-02-01 05:06:00,
2013-02-01 00:21:00,36.5,24.0,30.05,WNW,283,3.0,9.0,60,0.00,,,0.00,weatherlink.com 1.10,2013-02-01 05:21:00,
2013-02-01 00:36:00,36.6,23.0,30.05,SSE,149,1.0,8.0,59,0.00,,,0.00,weatherlink.com 1.10,2013-02-01 05:36:00,
2013-02-01 00:51:00,36.7,24.0,30.05,West,280,2.0,11.0,61,0.00,,,0.00,weatherlink.com 1.10,2013-02-01 05:51:00,
2013-02-01 01:06:00,37.2,24.0,30.05,SSW,200,4.0,9.0,60,0.00,,,0.00,weatherlink.com 1.10,2013-02-01 06:06:00,
2013-02-01 01:21:00,37.0,25.0,30.03,SE,140,5.0,7.0,62,0.00,,,0.00,weatherlink.com 1.10,2013-02-01 06:21:00,
2013-02-01 01:36:00,37.4,25.0,30.03,SE,139,2.0,7.0,62,0.00,,,0.00,weatherlink.com 1.10,2013-02-01 06:36:00,
2013-02-01 01:51:00,38.1,26.0,30.03,WNW,302,1.0,9.0,61,0.00,,,0.00,weatherlink.com 1.10,2013-02-01 06:51:00,
2013-02-01 02:06:00,38.4,25.0,30.02,NE,44,0.0,11.0,60,0.00,,,0.00,weatherlink.com 1.10,2013-02-01 07:06:00,
2013-02-01 02:21:00,39.1,26.0,30.02,South,170,3.0,7.0,60,0.00,,,0.00,weatherlink.com 1.10,2013-02-01 07:21:00,
2013-02-01 02:36:00,39.6,27.0,30.02,West,262,1.0,4.0,60,0.00,,,0.00,weatherlink.com 1.10,2013-02-01 07:36:00,
2013-02-01 02:51:00,39.9,27.0,30.00,NW,304,1.0,6.0,60,0.00,,,0.00,weatherlink.com 1.10,2013-02-01 07:51:00,
2013-02-01 03:06:00,39.9,27.0,30.00,SE,131,1.0,8.0,61,0.00,,,0.00,weatherlink.com 1.10,2013-02-01 08:06:00,
2013-02-01 03:21:00,40.0,28.0,30.00,WSW,255,1.0,8.0,62,0.00,,,0.00,weatherlink.com 1.10,2013-02-01 08:21:00,
2013-02-01 03:36:00,40.3,28.0,30.01,NNW,332,4.0,7.0,62,0.00,,,0.00,weatherlink.com 1.10,2013-02-01 08:36:00,
2013-02-01 03:52:00,37.3,30.0,30.02,North,354,5.0,11.0,76,0.00,,,0.00,weatherlink.com 1.10,2013-02-01 08:52:00,
2013-02-01 04:06:00,35.0,31.0,30.05,North,349,6.0,8.0,84,0.00,,,0.00,weatherlink.com 1.10,2013-02-01 09:06:00,
2013-02-01 04:21:00,32.3,29.0,30.05,North,349,5.0,9.0,88,0.00,,,0.00,weatherlink.com 1.10,2013-02-01 09:21:00,
2013-02-01 04:36:00,32.1,28.0,30.05,NNE,15,6.0,9.0,83,0.00,,,0.00,weatherlink.com 1.10,2013-02-01 09:36:00,
2013-02-01 04:52:00,31.6,27.0,30.07,North,349,6.0,12.0,82,0.00,,,0.00,weatherlink.com 1.10,2013-02-01 09:52:00,
2013-02-01 05:07:00,30.7,26.0,30.08,NNE,13,9.0,11.0,82,0.00,,,0.00,weatherlink.com 1.10,2013-02-01 10:07:00,
2013-02-01 05:22:00,30.9,23.0,30.09,NW,305,6.0,13.0,73,0.00,,,0.00,weatherlink.com 1.10,2013-02-01 10:22:00,
2013-02-01 05:37:00,30.2,22.0,30.11,North,352,5.0,10.0,71,0.00,,,0.00,weatherlink.com 1.10,2013-02-01 10:37:00,
2013-02-01 05:52:00,28.6,21.0,30.12,North,5,11.0,12.0,72,0.00,,,0.00,weatherlink.com 1.10,2013-02-01 10:52:00,
2013-02-01 06:07:00,27.4,17.0,30.13,NNE,13,14.0,16.0,64,0.00,,,0.00,weatherlink.com 1.10,2013-02-01 11:07:00,
2013-02-01 06:19:00,26.3,14.7,30.15,North,356,10.0,11.0,61,0.00,,,0.00,Wunderground v.1.15,2013-02-01 11:19:00,
2013-02-01 06:25:00,26.1,13.7,30.16,North,10,9.0,13.0,59,0.00,,,0.00,Wunderground v.1.15,2013-02-01 11:25:00,
2013-02-01 06:31:00,25.7,14.5,30.16,NNW,345,9.0,11.0,62,0.00,,,0.00,Wunderground v.1.15,2013-02-01 11:31:00,
2013-02-01 06:37:00,25.4,14.2,30.17,North,1,9.0,12.0,62,0.00,,,0.00,Wunderground v.1.15,2013-02-01 11:37:00,
2013-02-01 06:43:00,25.1,13.5,30.17,North,358,9.0,10.0,61,0.00,,,0.00,Wunderground v.1.15,2013-02-01 11:43:00,
2013-02-01 06:48:00,24.7,13.1,30.18,North,6,8.0,10.0,61,0.00,,,0.00,Wunderground v.1.15,2013-02-01 11:48:00,
2013-02-01 06:53:00,24.6,12.3,30.18,NNW,338,6.0,8.0,59,0.00,,,0.00,Wunderground v.1.15,2013-02-01 11:53:00,
2013-02-01 06:58:00,24.4,12.9,30.19,NNW,328,7.0,8.0,61,0.00,,,0.00,Wunderground v.1.15,2013-02-01 11:58:00,
2013-02-01 07:03:00,24.1,12.6,30.19,North,8,7.0,9.0,61,0.00,,,0.00,Wunderground v.1.15,2013-02-01 12:03:00,
2013-02-01 07:09:00,23.8,13.0,30.19,North,10,7.0,9.0,63,0.00,,,0.00,Wunderground v.1.15,2013-02-01 12:09:00,
2013-02-01 07:15:00,23.6,13.5,30.20,North,356,7.0,8.0,65,0.00,,,0.00,Wunderground v.1.15,2013-02-01 12:15:00,
2013-02-01 07:20:00,23.4,13.4,30.20,North,352,6.0,8.0,65,0.00,,,0.00,Wunderground v.1.15,2013-02-01 12:20:00,
2013-02-01 07:25:00,23.1,12.0,30.21,North,4,8.0,12.0,62,0.00,,,0.00,Wunderground v.1.15,2013-02-01 12:25:00,
2013-02-01 07:31:00,22.8,12.4,30.21,North,360,8.0,8.0,64,0.00,,,0.00,Wunderground v.1.15,2013-02-01 12:31:00,
2013-02-01 07:37:00,22.6,12.6,30.21,North,6,7.0,9.0,65,0.00,,,0.00,Wunderground v.1.15,2013-02-01 12:37:00,
2013-02-01 07:42:00,22.3,12.0,30.22,North,8,8.0,9.0,64,0.00,,,0.00,Wunderground v.1.15,2013-02-01 12:42:00,
2013-02-01 07:48:00,22.1,13.1,30.22,North,351,7.0,9.0,68,0.00,,,0.00,Wunderground v.1.15,2013-02-01 12:48:00,
2013-02-01 07:53:00,22.1,12.5,30.23,North,9,5.0,9.0,66,0.00,,,0.00,Wunderground v.1.15,2013-02-01 12:53:00,
2013-02-01 07:59:00,21.9,11.9,30.23,NNW,338,6.0,9.0,65,0.00,,,0.00,Wunderground v.1.15,2013-02-01 12:59:00,
2013-02-01 08:04:00,21.7,11.4,30.24,North,358,6.0,9.0,64,0.00,,,0.00,Wunderground v.1.15,2013-02-01 13:04:00,
2013-02-01 08:10:00,21.5,10.8,30.24,NNE,27,7.0,7.0,63,0.00,,,0.00,Wunderground v.1.15,2013-02-01 13:10:00,
2013-02-01 08:16:00,21.3,11.4,30.25,NNE,13,8.0,9.0,65,0.00,,,0.00,Wunderground v.1.15,2013-02-01 13:16:00,
2013-02-01 08:22:00,21.1,11.2,30.25,NNW,343,8.0,9.0,65,0.00,,,0.00,Wunderground v.1.15,2013-02-01 13:22:00,
2013-02-01 08:27:00,20.9,11.0,30.25,North,11,7.0,9.0,65,0.00,,,0.00,Wunderground v.1.15,2013-02-01 13:27:00,
2013-02-01 08:32:00,20.8,10.5,30.25,NNW,340,7.0,9.0,64,0.00,,,0.00,Wunderground v.1.15,2013-02-01 13:32:00,
2013-02-01 08:38:00,20.7,10.4,30.26,NNE,18,7.0,10.0,64,0.00,,,0.00,Wunderground v.1.15,2013-02-01 13:38:00,
2013-02-01 08:43:00,20.7,11.1,30.26,North,8,7.0,9.0,66,0.00,,,0.00,Wunderground v.1.15,2013-02-01 13:43:00,
2013-02-01 08:49:00,20.6,10.7,30.27,North,8,7.0,9.0,65,0.00,,,0.00,Wunderground v.1.15,2013-02-01 13:49:00,
2013-02-01 08:54:00,20.7,11.5,30.27,NNW,345,6.0,9.0,67,0.00,,,0.00,Wunderground v.1.15,2013-02-01 13:54:00,
2013-02-01 09:01:00,20.6,10.0,30.27,NNW,345,7.0,9.0,63,0.00,,,0.00,Wunderground v.1.15,2013-02-01 14:01:00,
2013-02-01 09:06:00,20.5,9.9,30.28,North,4,8.0,9.0,63,0.00,,,0.00,Wunderground v.1.15,2013-02-01 14:06:00,
2013-02-01 09:25:00,20.6,10.0,30.29,North,10,7.0,8.0,63,0.00,,,0.00,weatherlink.com 1.10,2013-02-01 14:25:00,
2013-02-01 09:40:00,20.8,10.0,30.31,NNW,340,4.0,9.0,62,0.00,,,0.00,weatherlink.com 1.10,2013-02-01 14:40:00,
2013-02-01 09:55:00,20.5,9.0,30.32,North,8,9.0,10.0,61,0.00,,,0.00,weatherlink.com 1.10,2013-02-01 14:55:00,
2013-02-01 10:10:00,20.7,9.0,30.33,North,353,8.0,10.0,60,0.00,,,0.00,weatherlink.com 1.10,2013-02-01 15:10:00,
2013-02-01 10:25:00,20.9,8.0,30.34,North,357,6.0,11.0,57,0.00,,,0.00,weatherlink.com 1.10,2013-02-01 15:25:00,
2013-02-01 10:40:00,21.3,8.0,30.35,NNE,15,7.0,10.0,56,0.00,,,0.00,weatherlink.com 1.10,2013-02-01 15:40:00,
2013-02-01 10:55:00,21.7,7.0,30.35,North,1,7.0,10.0,53,0.00,,,0.00,weatherlink.com 1.10,2013-02-01 15:55:00,
2013-02-01 11:10:00,22.3,8.0,30.36,NNW,328,4.0,8.0,55,0.00,,,0.00,weatherlink.com 1.10,2013-02-01 16:10:00,
2013-02-01 11:25:00,23.0,8.0,30.36,NNW,328,8.0,11.0,53,0.00,,,0.00,weatherlink.com 1.10,2013-02-01 16:25:00,
2013-02-01 11:40:00,22.1,7.0,30.36,NNW,345,7.0,14.0,52,0.00,,,0.00,weatherlink.com 1.10,2013-02-01 16:40:00,
2013-02-01 11:55:00,22.3,8.0,30.35,North,358,7.0,10.0,55,0.00,,,0.00,weatherlink.com 1.10,2013-02-01 16:55:00,
2013-02-01 12:10:00,22.5,8.0,30.36,NW,326,8.0,12.0,54,0.00,,,0.00,weatherlink.com 1.10,2013-02-01 17:10:00,
2013-02-01 12:25:00,22.7,8.0,30.36,North,352,6.0,14.0,54,0.00,,,0.00,weatherlink.com 1.10,2013-02-01 17:25:00,
2013-02-01 12:40:00,23.2,8.0,30.36,NNW,337,6.0,13.0,53,0.00,,,0.00,weatherlink.com 1.10,2013-02-01 17:40:00,
2013-02-01 12:55:00,23.7,9.0,30.36,NW,320,9.0,10.0,54,0.00,,,0.00,weatherlink.com 1.10,2013-02-01 17:55:00,
2013-02-01 13:10:00,23.9,9.0,30.36,North,11,4.0,12.0,54,0.00,,,0.00,weatherlink.com 1.10,2013-02-01 18:10:00,
2013-02-01 13:25:00,23.5,10.0,30.36,ENE,57,7.0,13.0,57,0.00,,,0.00,weatherlink.com 1.10,2013-02-01 18:25:00,
2013-02-01 13:40:00,23.4,11.0,30.36,NNW,345,8.0,10.0,60,0.00,,,0.00,weatherlink.com 1.10,2013-02-01 18:40:00,
2013-02-01 13:55:00,23.6,11.0,30.36,NNW,328,3.0,9.0,59,0.00,,,0.00,weatherlink.com 1.10,2013-02-01 18:55:00,
2013-02-01 14:10:00,23.5,11.0,30.36,NNW,339,3.0,10.0,59,0.00,,,0.00,weatherlink.com 1.10,2013-02-01 19:10:00,
2013-02-01 14:25:00,24.1,11.0,30.36,North,11,7.0,10.0,57,0.00,,,0.00,weatherlink.com 1.10,2013-02-01 19:25:00,
2013-02-01 14:40:00,24.5,12.0,30.36,North,8,8.0,8.0,59,0.00,,,0.00,weatherlink.com 1.10,2013-02-01 19:40:00,
2013-02-01 14:55:00,24.6,12.0,30.36,NNE,18,4.0,8.0,60,0.00,,,0.00,weatherlink.com 1.10,2013-02-01 19:55:00,
2013-02-01 15:10:00,24.8,11.0,30.36,NNW,343,5.0,10.0,57,0.00,,,0.00,weatherlink.com 1.10,2013-02-01 20:10:00,
2013-02-01 15:25:00,24.8,11.0,30.36,NNW,337,5.0,8.0,55,0.00,,,0.00,weatherlink.com 1.10,2013-02-01 20:25:00,
2013-02-01 15:41:00,25.0,10.0,30.36,NNW,341,5.0,8.0,53,0.00,,,0.00,weatherlink.com 1.10,2013-02-01 20:41:00,
2013-02-01 15:56:00,25.2,10.0,30.36,ENE,63,3.0,7.0,52,0.00,,,0.00,weatherlink.com 1.10,2013-02-01 20:56:00,
2013-02-01 16:11:00,25.5,10.0,30.36,NW,314,5.0,5.0,52,0.00,,,0.00,weatherlink.com 1.10,2013-02-01 21:11:00,
2013-02-01 16:26:00,25.7,10.0,30.37,NE,51,1.0,6.0,51,0.00,,,0.00,weatherlink.com 1.10,2013-02-01 21:26:00,
2013-02-01 16:41:00,25.7,10.0,30.37,ENE,77,6.0,6.0,52,0.00,,,0.00,weatherlink.com 1.10,2013-02-01 21:41:00,
2013-02-01 16:56:00,25.4,10.0,30.37,NNW,333,4.0,6.0,53,0.00,,,0.00,weatherlink.com 1.10,2013-02-01 21:56:00,
2013-02-01 17:11:00,24.5,10.0,30.37,WNW,289,3.0,7.0,54,0.00,,,0.00,weatherlink.com 1.10,2013-02-01 22:11:00,
2013-02-01 17:26:00,23.9,10.0,30.38,NE,37,1.0,5.0,55,0.00,,,0.00,weatherlink.com 1.10,2013-02-01 22:26:00,
2013-02-01 17:41:00,23.5,9.0,30.38,ESE,113,1.0,7.0,55,0.00,,,0.00,weatherlink.com 1.10,2013-02-01 22:41:00,
2013-02-01 17:56:00,23.1,9.0,30.38,North,6,1.0,5.0,56,0.00,,,0.00,weatherlink.com 1.10,2013-02-01 22:56:00,
2013-02-01 18:11:00,22.7,9.0,30.38,NE,44,4.0,6.0,57,0.00,,,0.00,weatherlink.com 1.10,2013-02-01 23:11:00,
2013-02-01 18:26:00,22.4,10.0,30.38,NW,313,0.0,4.0,58,0.00,,,0.00,weatherlink.com 1.10,2013-02-01 23:26:00,
2013-02-01 18:41:00,22.1,9.0,30.39,NE,56,0.0,5.0,58,0.00,,,0.00,weatherlink.com 1.10,2013-02-01 23:41:00,
2013-02-01 18:56:00,21.8,9.0,30.40,SSE,158,1.0,3.0,59,0.00,,,0.00,weatherlink.com 1.10,2013-02-01 23:56:00,
2013-02-01 19:07:00,21.6,9.8,30.41,NE,39,1.0,1.0,60,0.00,,,0.00,Wunderground v.1.15,2013-02-02 00:07:00,
2013-02-01 19:13:00,21.6,9.8,30.41,NE,38,1.0,1.0,60,0.00,,,0.00,Wunderground v.1.15,2013-02-02 00:13:00,
2013-02-01 19:19:00,21.5,9.7,30.41,NNE,12,1.0,1.0,60,0.00,,,0.00,Wunderground v.1.15,2013-02-02 00:19:00,
2013-02-01 19:24:00,21.3,9.9,30.41,East,79,1.0,1.0,61,0.00,,,0.00,Wunderground v.1.15,2013-02-02 00:24:00,
2013-02-01 19:30:00,21.1,9.7,30.41,SSW,197,0.0,0.0,61,0.00,,,0.00,Wunderground v.1.15,2013-02-02 00:30:00,
2013-02-01 19:35:00,21.0,10.0,30.41,SW,235,0.0,1.0,62,0.00,,,0.00,Wunderground v.1.15,2013-02-02 00:35:00,
2013-02-01 19:41:00,20.9,9.0,30.42,NNE,12,1.0,2.0,61,0.00,,,0.00,weatherlink.com 1.10,2013-02-02 00:41:00,
2013-02-01 19:47:00,20.9,9.9,30.42,SE,126,0.0,1.0,62,0.00,,,0.00,Wunderground v.1.15,2013-02-02 00:47:00,
2013-02-01 19:52:00,20.9,9.5,30.42,NE,49,0.0,5.0,61,0.00,,,0.00,Wunderground v.1.15,2013-02-02 00:52:00,
2013-02-01 19:58:00,20.8,9.5,30.42,East,96,0.0,5.0,61,0.00,,,0.00,Wunderground v.1.15,2013-02-02 00:58:00,
2013-02-01 20:03:00,20.7,9.4,30.42,SE,127,0.0,0.0,61,0.00,,,0.00,Wunderground v.1.15,2013-02-02 01:03:00,
2013-02-01 20:09:00,20.6,9.6,30.42,SSE,147,0.0,1.0,62,0.00,,,0.00,Wunderground v.1.15,2013-02-02 01:09:00,
2013-02-01 20:15:00,20.5,9.9,30.42,WSW,243,0.0,1.0,63,0.00,,,0.00,Wunderground v.1.15,2013-02-02 01:15:00,
2013-02-01 20:21:00,20.5,9.5,30.42,SE,143,0.0,0.0,62,0.00,,,0.00,Wunderground v.1.15,2013-02-02 01:21:00,
2013-02-01 20:27:00,20.4,9.0,30.43,East,94,0.0,1.0,62,0.00,,,0.00,weatherlink.com 1.10,2013-02-02 01:27:00,
2013-02-01 20:32:00,20.3,9.3,30.42,SSE,158,0.0,0.0,62,0.00,,,0.00,Wunderground v.1.15,2013-02-02 01:32:00,
2013-02-01 20:38:00,20.1,9.2,30.42,SE,131,0.0,0.0,62,0.00,,,0.00,Wunderground v.1.15,2013-02-02 01:38:00,
2013-02-01 20:43:00,20.1,9.5,30.42,South,184,0.0,2.0,63,0.00,,,0.00,Wunderground v.1.15,2013-02-02 01:43:00,
2013-02-01 20:49:00,20.0,9.4,30.42,East,100,0.0,2.0,63,0.00,,,0.00,Wunderground v.1.15,2013-02-02 01:49:00,
2013-02-01 20:55:00,19.9,9.3,30.43,ESE,102,0.0,2.0,63,0.00,,,0.00,Wunderground v.1.15,2013-02-02 01:55:00,
2013-02-01 21:00:00,19.9,9.7,30.43,ESE,102,0.0,0.0,64,0.00,,,0.00,Wunderground v.1.15,2013-02-02 02:00:00,
2013-02-01 21:06:00,19.8,9.6,30.42,ESE,106,0.0,0.0,64,0.00,,,0.00,Wunderground v.1.15,2013-02-02 02:06:00,
2013-02-01 21:12:00,19.7,9.5,30.43,ESE,108,0.0,0.0,64,0.00,,,0.00,Wunderground v.1.15,2013-02-02 02:12:00,
2013-02-01 21:18:00,19.6,9.7,30.43,ESE,117,0.0,1.0,65,0.00,,,0.00,Wunderground v.1.15,2013-02-02 02:18:00,
2013-02-01 21:23:00,19.4,9.2,30.43,SSW,203,0.0,0.0,64,0.00,,,0.00,Wunderground v.1.15,2013-02-02 02:23:00,
2013-02-01 21:29:00,19.4,9.2,30.43,West,262,0.0,1.0,64,0.00,,,0.00,Wunderground v.1.15,2013-02-02 02:29:00,
2013-02-01 21:34:00,19.4,9.9,30.43,West,260,0.0,1.0,66,0.00,,,0.00,Wunderground v.1.15,2013-02-02 02:34:00,
2013-02-01 21:40:00,19.2,10.7,30.44,WSW,249,0.0,0.0,69,0.00,,,0.00,Wunderground v.1.15,2013-02-02 02:40:00,
2013-02-01 21:45:00,19.1,10.3,30.43,South,191,1.0,1.0,68,0.00,,,0.00,Wunderground v.1.15,2013-02-02 02:45:00,
2013-02-01 21:51:00,19.0,10.2,30.43,South,191,1.0,1.0,68,0.00,,,0.00,Wunderground v.1.15,2013-02-02 02:51:00,
2013-02-01 21:57:00,18.9,10.0,30.43,SSW,193,1.0,1.0,67,0.00,,,0.00,weatherlink.com 1.10,2013-02-02 02:57:00,
2013-02-01 22:12:00,18.8,10.0,30.44,SSW,193,0.0,1.0,68,0.00,,,0.00,weatherlink.com 1.10,2013-02-02 03:12:00,
2013-02-01 22:27:00,18.6,11.0,30.43,SSW,193,1.0,1.0,71,0.00,,,0.00,weatherlink.com 1.10,2013-02-02 03:27:00,
2013-02-01 22:42:00,18.7,10.0,30.43,SSW,193,0.0,1.0,70,0.00,,,0.00,weatherlink.com 1.10,2013-02-02 03:42:00,
2013-02-01 22:57:00,18.8,11.0,30.44,SSW,193,0.0,1.0,72,0.00,,,0.00,weatherlink.com 1.10,2013-02-02 03:57:00,
2013-02-01 23:12:00,18.9,12.0,30.45,SSW,193,0.0,1.0,74,0.00,,,0.00,weatherlink.com 1.10,2013-02-02 04:12:00,
2013-02-01 23:27:00,18.9,12.0,30.45,SSW,193,0.0,1.0,73,0.00,,,0.00,weatherlink.com 1.10,2013-02-02 04:27:00,
2013-02-01 23:42:00,18.6,11.0,30.45,SSW,193,0.0,0.0,72,0.00,,,0.00,weatherlink.com 1.10,2013-02-02 04:42:00,
2013-02-01 23:57:00,18.2,11.0,30.45,SSW,193,0.0,0.0,74,0.00,,,0.00,weatherlink.com 1.10,2013-02-02 04:57:00,